Wind_Speed
16 16 16 16 16 17 17 17 17 17 16 17 18 18 18 18 17 18 18 18 17 17 17 17 17 17 17 17 17 17 18 17 17 18 18 18 17 18
17 17 17 16 16 17 18 19 19 18 18 17 17 17 17 17 18 18 18 18 18 18 18 18 18 18 18 17 17 18 18 18 18 18 19 18 18 19
17 17 18 18 17 17 18 18 19 19 19 18 18 18 18 18 18 19 19 19 19 19 19 20 20 19 18 18 18 18 19 19 19 19 19 19 19 20
18 19 19 19 18 18 18 18 18 19 19 19 18 19 19 19 19 20 20 21 21 20 20 20 20 19 19 19 19 19 19 20 20 20 20 20 20 20
19 19 20 20 19 19 19 19 19 19 19 19 19 19 20 20 20 20 21 21 21 20 20 19 19 18 18 19 19 19 19 20 20 21 21 21 21 20
20 20 20 19 19 19 19 19 19 20 20 20 20 20 21 22 22 21 21 20 20 20 19 19 19 19 19 20 20 20 20 21 21 21 22 22 22 22
19 19 19 19 19 19 19 19 20 21 21 21 21 22 22 22 22 21 21 20 20 20 20 20 20 20 20 20 21 21 22 22 22 22 22 23 23 24
19 19 19 19 19 19 20 20 20 20 21 21 22 22 23 22 22 21 21 21 21 21 21 21 21 21 21 21 21 22 22 23 22 23 23 24 24 24
19 19 19 19 19 19 20 20 20 21 21 21 22 23 23 22 22 22 22 22 22 22 22 22 22 22 22 22 22 23 23 23 24 23 23 24 25 25
19 19 18 19 19 19 19 20 20 21 21 22 22 23 23 23 22 23 23 24 24 24 23 23 23 23 23 23 24 24 24 24 24 24 24 25 25 26
20 19 19 19 19 19 20 21 21 22 22 22 23 23 23 23 24 24 24 25 25 25 25 25 25 24 25 25 25 25 25 25 25 26 26 26 26 27
20 20 20 20 20 20 21 22 22 22 23 23 23 23 23 23 24 24 24 25 25 25 26 26 26 26 25 25 26 26 26 27 27 27 27 27 27 28
21 21 22 22 22 22 22 23 23 23 23 23 24 23 23 24 24 25 25 25 26 26 26 27 27 27 27 27 26 26 27 27 28 28 29 29 29 29
22 22 22 22 22 23 24 24 25 24 24 24 24 24 24 24 24 25 25 26 26 27 27 27 27 27 28 28 28 28 28 28 28 29 29 30 30 30
23 23 23 23 23 24 25 25 26 25 25 25 25 25 25 24 24 25 25 26 27 27 28 28 28 28 29 29 29 29 29 29 29 29 29 29 29 29
23 23 23 24 25 26 26 26 26 25 25 26 26 26 26 25 25 26 26 26 27 27 28 29 29 29 29 30 30 30 30 30 30 30 30 29 29 29
24 24 24 25 25 26 26 26 26 26 26 26 26 26 26 26 26 26 27 27 27 27 28 29 29 30 30 30 30 29 29 29 30 30 30 29 29 28
25 25 25 25 26 27 27 27 26 26 26 26 26 26 26 26 27 27 28 28 28 28 29 29 30 30 30 29 29 29 29 29 29 29 29 28 28 28
25 25 25 25 26 26 26 26 26 27 27 27 27 27 27 27 28 29 29 29 29 29 29 29 29 29 29 28 28 29 29 29 29 29 29 28 28 28
25 25 25 26 26 26 26 26 27 27 27 28 27 27 27 28 28 29 30 30 30 29 29 29 29 29 28 27 27 27 28 28 28 28 28 28 28 28
27 27 27 27 27 27 27 26 26 27 27 28 28 28 28 28 28 29 29 30 29 29 28 28 28 28 27 27 27 27 28 28 28 28 29 29 29 29
28 28 29 29 29 28 27 27 27 27 27 28 29 29 29 29 29 29 29 29 29 28 27 27 27 26 26 27 27 26 26 27 28 28 28 29 29 28
28 28 28 28 28 27 27 27 27 27 27 28 28 29 29 29 29 29 29 29 28 27 26 26 26 26 26 26 26 26 25 25 26 26 26 27 28 28
Wind_Direction
277 277 277 277 272 269 268 267 268 269 269 270 272 273 272 273 275 276 278 279 281 282 284 284 282 280 276 271 267 263 260 259 258 257 257 256 257 255
276 276 277 278 275 272 269 269 270 270 269 271 272 274 271 272 275 276 279 280 281 283 284 283 282 279 275 272 269 265 262 259 257 256 255 255 255 255
276 277 277 276 276 273 271 271 272 271 271 272 272 272 273 274 276 277 278 280 281 282 282 281 280 278 275 271 268 265 263 260 257 256 255 254 255 255
276 276 277 277 278 274 271 271 272 272 272 272 272 273 275 275 276 278 278 278 279 280 281 280 277 275 273 270 267 264 264 262 260 258 257 256 255 254
276 277 277 277 276 273 270 270 271 272 273 273 274 274 277 277 278 280 279 278 277 278 279 279 277 274 270 268 267 266 265 265 263 261 260 258 257 255
277 277 277 276 274 271 270 270 271 271 273 274 275 277 278 279 279 279 278 277 275 276 277 278 277 275 271 267 267 266 265 265 265 264 261 258 257 257
276 276 275 276 274 271 270 271 272 271 273 274 277 279 280 281 280 278 275 275 275 275 276 278 277 276 273 270 267 265 264 264 263 263 262 261 260 258
276 276 274 274 273 271 271 273 274 274 274 275 277 280 281 281 279 277 275 274 274 274 275 276 276 275 274 272 269 267 264 263 263 265 265 264 262 260
276 275 274 273 271 269 270 271 273 275 277 278 279 281 280 280 278 276 274 273 273 273 273 274 275 275 275 273 269 267 266 264 263 265 265 264 263 263
278 276 274 273 271 270 271 272 274 276 279 281 282 281 280 278 278 277 275 274 273 273 273 273 273 273 274 273 270 267 266 266 265 265 264 264 264 264
278 277 274 273 272 272 273 274 276 278 280 281 281 282 283 281 279 278 276 275 273 272 271 271 272 273 273 273 272 269 267 266 265 264 264 264 265 265
278 278 277 275 273 273 276 278 278 279 280 280 280 281 283 282 282 280 278 276 274 272 271 271 271 273 273 273 272 270 268 267 265 265 265 265 265 266
279 279 277 276 274 274 277 280 281 281 281 281 281 282 283 284 282 281 280 277 276 275 274 273 273 273 273 273 272 271 270 268 266 265 265 264 264 265
279 278 277 275 276 277 277 279 280 281 281 281 281 281 284 284 283 281 280 279 278 277 276 276 275 274 274 274 272 271 271 270 269 267 267 265 264 264
278 279 279 277 277 278 279 280 280 279 279 280 281 282 283 284 283 282 281 280 280 279 278 277 276 275 274 274 273 271 270 270 271 269 267 266 266 265
279 279 279 279 279 279 281 280 280 278 278 280 280 281 283 283 284 284 282 281 281 280 279 277 277 277 277 275 274 272 271 270 271 270 269 268 268 266
280 279 280 280 280 280 280 279 278 278 278 277 278 279 281 283 285 285 284 284 283 281 279 278 278 278 278 277 275 274 271 270 269 268 267 267 267 266
280 280 280 281 282 281 279 279 278 278 278 278 278 279 280 282 283 285 285 284 283 282 281 280 279 278 277 277 276 274 271 269 268 268 268 266 265 265
280 280 281 282 283 282 279 278 277 277 277 278 278 279 280 281 283 284 285 285 284 283 282 281 281 281 278 276 274 273 271 269 267 267 267 266 264 264
281 281 281 282 283 282 280 278 277 276 276 276 278 279 281 283 284 286 286 285 284 283 282 282 281 281 279 277 274 274 273 270 268 266 265 264 264 264
281 281 281 283 283 281 280 279 278 277 277 277 278 279 281 283 285 286 287 286 285 283 282 281 281 280 279 278 277 275 273 272 269 266 264 263 263 263
280 280 280 281 281 280 279 279 280 279 279 280 280 280 281 282 283 285 286 286 285 283 281 280 279 280 280 280 279 276 274 273 271 268 266 265 264 263
281 282 282 281 280 279 279 280 280 280 281 281 282 281 281 281 282 283 284 284 283 281 280 278 278 280 281 280 279 277 275 273 272 270 269 268 266 265
Height
5792 5792 5791 5791 5790 5790 5790 5790 5790 5790 5790 5789 5789 5789 5788 5788 5787 5787 5786 5785 5784 5783 5782 5781 5779 5778 5777 5776 5776 5776 5776 5777 5777 5777 5778 5778 5778 5779
5788 5787 5786 5786 5785 5785 5784 5784 5784 5784 5784 5784 5784 5784 5783 5783 5782 5781 5781 5780 5779 5778 5777 5775 5774 5773 5772 5771 5771 5771 5771 5771 5772 5772 5772 5773 5773 5774
5783 5782 5781 5780 5780 5779 5779 5779 5779 5779 5779 5779 5779 5778 5778 5777 5776 5776 5775 5774 5773 5772 5771 5769 5768 5767 5766 5766 5766 5765 5765 5766 5766 5767 5767 5767 5768 5768
5777 5776 5775 5775 5774 5773 5773 5773 5773 5773 5773 5773 5773 5773 5772 5771 5771 5770 5769 5768 5767 5765 5764 5763 5762 5761 5760 5760 5760 5759 5759 5760 5760 5761 5761 5762 5762 5762
5772 5770 5769 5769 5768 5767 5767 5768 5768 5767 5767 5767 5767 5767 5766 5765 5764 5763 5762 5761 5760 5759 5757 5756 5755 5754 5754 5754 5753 5753 5754 5754 5754 5754 5754 5755 5756 5756
5765 5764 5763 5762 5762 5762 5762 5762 5762 5762 5761 5761 5761 5760 5760 5759 5758 5757 5756 5754 5753 5752 5751 5750 5749 5748 5748 5747 5747 5747 5748 5748 5748 5748 5748 5748 5749 5749
5759 5758 5757 5757 5756 5756 5756 5756 5756 5756 5756 5755 5755 5754 5753 5752 5751 5750 5749 5748 5747 5746 5745 5744 5743 5743 5742 5741 5741 5741 5741 5741 5741 5741 5741 5741 5742 5742
5753 5752 5751 5751 5750 5750 5750 5750 5750 5750 5749 5749 5748 5747 5746 5745 5744 5743 5742 5741 5741 5740 5739 5738 5737 5736 5735 5735 5734 5734 5734 5734 5734 5734 5734 5734 5734 5735
5747 5746 5746 5745 5745 5744 5744 5744 5744 5743 5743 5742 5742 5740 5739 5738 5737 5736 5735 5734 5733 5733 5732 5731 5730 5729 5728 5728 5727 5727 5727 5727 5727 5727 5727 5727 5727 5727
5741 5740 5740 5739 5739 5738 5738 5738 5737 5736 5736 5735 5734 5733 5731 5730 5729 5728 5727 5727 5726 5725 5724 5724 5723 5722 5721 5720 5720 5720 5719 5719 5720 5720 5720 5720 5720 5720
5735 5734 5734 5733 5733 5732 5732 5732 5731 5730 5729 5728 5726 5725 5724 5722 5721 5720 5719 5719 5718 5717 5716 5716 5716 5715 5714 5713 5712 5712 5712 5712 5712 5712 5712 5712 5712 5712
5729 5728 5728 5727 5726 5726 5725 5725 5724 5723 5722 5720 5719 5718 5716 5715 5713 5712 5711 5710 5709 5709 5708 5707 5707 5706 5706 5706 5704 5704 5703 5703 5703 5703 5703 5703 5703 5703
5723 5722 5722 5721 5720 5719 5718 5718 5717 5716 5714 5713 5712 5711 5709 5708 5706 5704 5703 5702 5701 5700 5700 5699 5698 5698 5697 5697 5696 5695 5694 5694 5694 5694 5694 5694 5694 5694
5717 5716 5715 5714 5713 5712 5711 5710 5709 5708 5707 5706 5704 5703 5702 5700 5698 5696 5695 5694 5693 5692 5691 5690 5690 5689 5688 5687 5687 5686 5685 5685 5684 5684 5684 5684 5684 5684
5709 5708 5707 5707 5706 5705 5704 5702 5701 5700 5699 5698 5697 5695 5694 5692 5690 5689 5687 5685 5684 5683 5682 5681 5680 5680 5679 5678 5677 5676 5676 5675 5674 5674 5674 5674 5674 5674
5702 5701 5700 5699 5698 5697 5696 5694 5693 5692 5691 5690 5688 5687 5685 5684 5682 5681 5679 5678 5676 5675 5673 5672 5671 5670 5669 5668 5666 5666 5665 5665 5664 5664 5663 5664 5664 5664
5694 5693 5692 5691 5690 5689 5687 5686 5684 5683 5682 5681 5680 5679 5677 5676 5674 5672 5671 5669 5668 5666 5665 5663 5661 5660 5659 5657 5657 5656 5655 5654 5654 5653 5654 5654 5654 5654
5686 5685 5684 5682 5681 5680 5678 5677 5676 5674 5673 5672 5671 5670 5669 5667 5666 5664 5662 5660 5659 5657 5655 5654 5652 5650 5649 5648 5647 5646 5645 5644 5644 5643 5644 5644 5645 5645
5677 5676 5675 5674 5672 5671 5669 5668 5667 5665 5664 5663 5662 5661 5660 5658 5657 5655 5653 5651 5649 5647 5645 5644 5642 5640 5639 5639 5637 5635 5635 5634 5634 5634 5634 5635 5635 5636
5669 5668 5667 5665 5663 5662 5660 5659 5657 5656 5655 5654 5653 5652 5651 5649 5647 5645 5643 5641 5639 5637 5636 5634 5632 5631 5629 5628 5627 5626 5625 5624 5624 5624 5625 5625 5626 5627
5660 5659 5657 5656 5654 5653 5651 5650 5648 5647 5645 5645 5644 5642 5641 5639 5637 5635 5633 5631 5629 5628 5626 5625 5623 5621 5619 5618 5618 5617 5616 5614 5614 5614 5615 5616 5617 5618
5651 5650 5648 5646 5645 5643 5642 5640 5639 5637 5636 5635 5634 5632 5631 5629 5628 5626 5624 5622 5620 5618 5617 5615 5613 5612 5611 5610 5609 5608 5607 5606 5605 5605 5605 5606 5607 5608
5641 5640 5638 5636 5635 5633 5632 5631 5629 5628 5627 5625 5624 5623 5621 5620 5618 5616 5614 5612 5610 5609 5607 5606 5604 5603 5602 5601 5600 5599 5598 5598 5597 5597 5597 5597 5597 5598